Tracking 28309 objects as of 1-Dec-2023
HD Live streaming from Space Station
objects crossing your sky now

COSMOS 397 DEB

Track COSMOS 397 DEB now!
10-day predictions


NORAD ID: 5222
Int'l Code: 1971-015AW
Perigee: 559.0 km
Apogee: 1,580.0 km
Inclination: 65.7 °
Period: 106.5 minutes
Semi major axis: 7440 km
RCS: 0.0146 m2 (small)
Launch date: February 25, 1971
Source: Commonwealth of Independent States (former USSR) (CIS)
Launch site: TYURATAM MISSILE AND SPACE COMPLEX (TTMTR)

Note: This is SATELLITE DEBRIS
Your satellite tracking list
Your tracking list is empty




NASA's NSSDC Master Catalog

Two Line Element Set (TLE):
1  5222U 71015AW  23333.81711516  .00002767  00000-0  92858-3 0  9996
2  5222  65.7219 136.7965 0686164   5.5354 355.2797 13.52696038535210
Source of the keplerian elements: AFSPC